Find Starlink 3305

NORAD ID: 50166 Int'l Des: 2021-125 Owner: SPXS Country: US Constellation: starlink operational
LEOCIRCULAR

Live Position

Loading 3D Globe...

About Starlink 3305

Description loading...

Upcoming Passes

Passes for default location (London). Set your location on the main map for personalized predictions.

Altitude History

Loading altitude history...

Two-Line Element Set

1 50166U 21125L 26122.09685672 .00002494 00000-0 17470-3 0 9996
2 50166 53.2186 9.2995 0001436 91.7582 268.3575 15.08846630244653
Epoch: May 2, 2026 • Age: 20 hours

Current Status

Altitude 551.2 km
Velocity 7.59 km/s
Sub-Earth Point -34.36°S, 19.36°E
Launch Date Dec 18, 2021
Age 4.3 years
Type internet

Technical Details

Classification Payload
Mass 290.00 kg
Dry Mass 270.00 kg
Total Mass 290.00 kg
Length 0.20 m
Diameter 2.80 m
Span 9.00 m
Shape Box + pan
Manufacturer SPXS
Bus Type Starlink
Phase Status In Orbit
Owner/State SPXS/US

Most Searched